Regional Weather Roundup
Issued by NWS Newport/Morehead, NC

Current Version | Previous Version | Graphics & Text | Print | Product List | Glossary Off
Versions: 1 2 3 4 5 6 7 8 9 10 11 12 13 14 15 16 17 18 19 20 21 22 23 24 25 26 27 28 29 30 31 32 33 34 35 36 37 38 39 40 41 42 43 44 45 46 47 48 49 50

000
ASUS42 KMHX 281225
RWRMHX
WEATHER ROUNDUP FOR EASTERN NORTH CAROLINA
NATIONAL WEATHER SERVICE NEWPORT/MOREHEAD CITY NC
800 AM EDT TUE MAR 28 2017

NOTE: "FAIR" INDICATES FEW OR NO CLOUDS BELOW 12,000 FEET
WITH NO SIGNIFICANT WEATHER AND/OR OBSTRUCTIONS TO VISIBILITY

NCZ015>017-031-032-045>047-102-103-281300-
NORTH COAST

CITY           SKY/WX    TMP DP  RH WIND       PRES   REMARKS
EDENTON        CLOUDY    61  57  88 CALM      29.97R
ELIZABETH CITY SUNNY     61  57  87 S8        29.97R
KITTY HAWK     NOT AVBL
MANTEO         PTSUNNY   60  58  93 SW9       29.99S

$$

NCZ045>047-081-094-103-104-281300-
CENTRAL COAST

CITY           SKY/WX    TMP DP  RH WIND       PRES   REMARKS
FRISCO         CLOUDY    69  61  75 SW8       30.00R HAZE

$$

NCZ095-097-098-100-101-281300-
SOUTHERN COAST

CITY           SKY/WX    TMP DP  RH WIND       PRES   REMARKS
BEAUFORT       MOSUNNY   64  61  90 SW7       30.00R
CEDAR ISLAND   NOT AVBL
JACKSONVILLE   PTSUNNY   63  60  90 S5        29.99R
PINEY ISLAND   CLOUDY   N/A N/A N/A S5        30.00
WILMINGTON     SUNNY     64  61  90 SW7       30.00R


$$

NCZ011>013-027>030-043-044-078>080-089-090>093-098-281300-
COASTAL PLAIN

CITY           SKY/WX    TMP DP  RH WIND       PRES   REMARKS
AHOSKIE          N/A     61  57  86 S5        29.94S
CLINTON        PTSUNNY   62  60  93 SW6       29.99R
ELIZABETHTOWN  PTSUNNY   64  60  84 SW5       29.99R
GOLDSBORO      CLOUDY    63  63 100 SW12      29.96R
GREENVILLE     CLOUDY    63  59  88 SW8       29.99R
HAVELOCK       NOT AVBL
KENANSVILLE    CLOUDY    64  59  82 SW7       29.99R
KINSTON        CLOUDY    64  59  82 SW8       29.99R
NEW BERN       CLOUDY    64  59  83 S7        30.00R
RICHLANDS      CLOUDY    63  60  90 S7        29.99R
ROCKY MOUNT    CLOUDY    62  58  86 SW9       29.96R
WASHINGTON     CLOUDY    62  58  86 S6        29.98R
WHITEVILLE     PTSUNNY   63  59  87 SW6       29.98S

$$

AMZ130-135-150-152-154-156-158-170-250-252-270-ANZ085-086-088-633-658-670-281300-
MARINE OBSERVATIONS

STATION/POSITION TIME  TEMP    WIND        PRES    WAVE   SWELL
                       AIR SEA DIR/SP/G            HT/PER HT/PER
                 (UTC) (F)     (DEG/KT/KT) (MB)    (FT/S) (FT/S)
CHESAPEAKE LIGHT NOT AVBL
64 E VA BEACH    1150   55 50  210/ 10/ 12 1014.7    4/ 9   3/ 9
DUCK             1154   62 48  190/ 12/ 14 1014.4
2 E DUCK         1130      50                N/A     3/10   2/11
OREGON INLET     1148   61 58  190/  9/ 10 1015.4
13E OREGON INLT  1148      52                N/A     4/ 9   3/ 9
HATTERAS CG      1154   66 61  210/  7/ 10 1015.5
DIAMOND BUOY     1150   71 74  240/ 17/ 19 1015.9    5/10   5/10
CAPE LOOKOUT     1200   67     220/  5/  7 1015.8
BEAUFORT LAB     1154   64 60  220/  3/  6 1015.1
30 SE NEW RVR IN 1208   66     250/  8/ 10 1016.2
30 SE NEW RVR IN 1143      64                N/A     5/10   2/11
27 SE WRIGHTSVLE 1208   68 66  230/ 10/ 14 1015.4
5 SE WRIGHTSVLE  1208   62 60  210/  6/  8 1015.7
225 S CAPE HAT   1150   68 72  310/  2/  4 1017.9    6/ 9   7/ 9
41 SE CHARLESTON 1150   71 70  240/ 14/ 16 1016.2    6/10   5/10

$$




USA.gov is the U.S. government's official web portal to all federal, state and local government web resources and services.